Regional Weather Roundup
Issued by NWS Sioux Falls, SD

Home | Current Version | Previous Version | Text Only | Print | Product List | Glossary Off
Versions: 1 2 3 4 5 6 7 8 9 10 11 12 13 14 15 16 17 18 19 20 21 22 23 24 25 26 27 28 29 30 31 32 33 34 35 36 37 38 39 40 41 42 43 44 45 46 47 48 49 50

000
ASUS43 KFSD 211302
RWRFSD

WEATHER ROUNDUP FOR SE SOUTH DAKOTA/SW MINNESOTA/NW IOWA
NATIONAL WEATHER SERVICE SIOUX FALLS SD
700 AM CST SUN DEC 21 2014

NOTE: "FAIR" INDICATES FEW OR NO CLOUDS BELOW 12,000 FEET WITH NO
SIGNIFICANT WEATHER AND OR OBSTRUCTIONS TO VISIBILITY.


SDZ038>040-050-052>070-211400-
SOUTHEAST SOUTH DAKOTA

CITY           SKY/WX    TMP DP  RH WIND       PRES   REMARKS
CHAMBERLAIN    NOT AVBL
HURON          FOG       30  30 100 S8        29.75F VSB 1   WCI  22
MADISON        FOG       30  30 100 S12       29.77F VSB 1/4 WCI  21
MITCHELL       FOG       31  31 100 SE10      29.76F VSB 3/4 WCI  22
SIOUX FALLS    FOG       32  32 100 S10       29.80F VSB 1   WCI  24
WINNER         FAIR      36  25  64 S8        29.67F
YANKTON        CLOUDY    32  30  93 S8        29.80F WCI  25
$$

MNZ071-072-080-081-089-090-097-098-211400-
SOUTHWEST MINNESOTA

CITY           SKY/WX    TMP DP  RH WIND       PRES   REMARKS
FAIRMONT       CLOUDY    34  30  86 S13       29.86S VSB 1/2 WCI  25
JACKSON        MIX PCPN  34  32  93 S14       29.84S VSB 1/2 WCI  24
LUVERNE        CLOUDY    34  32  93 S10       29.81S FOG     WCI  26
MARSHALL       CLOUDY    32  28  86 S7        29.83S WCI  26
MONTEVIDEO     CLOUDY    32  32 100 SW6       29.83F FOG     WCI  26
PIPESTONE      FOG       30  30 100 CALM      29.79F VSB 1/4
REDWOOD FALLS  FOG       32  31  96 S7        29.85S VSB 3/4 WCI  26
TRACY          CLOUDY    32  32  99 S6        29.83S FOG     WCI  27
WINDOM         FOG       34  34 100 S9        29.83S VSB 3/4 WCI  26
WORTHINGTON    CLOUDY    32  30  93 S10       29.81F VSB 3/4 WCI  24
$$

IAZ001>003-012>014-020>022-031-032-NEZ013-014-SDZ071-211400-
NORTHWEST IOWA

CITY           SKY/WX    TMP DP  RH WIND       PRES   REMARKS
DENISON        FOG       36  36 100 S14G23    29.86F VSB 3/4
ESTHERVILLE    FOG       33  33 100 S14       29.85S VSB 1/4 WCI  23
SIOUX CITY     CLOUDY    37  36  96 S10       29.84F FOG
SPENCER        CLOUDY    35  33  92 S13       29.84F FOG     WCI  26
$$

ABBREVIATIONS USED IN REMARKS
   TC - TEMPERATURE IN CELSIUS
  WCI - WIND CHILL INDEX
   HX - HEAT INDEX
  VSB - VISIBILITY




USA.gov is the U.S. government's official web portal to all federal, state and local government web resources and services.